Preview of NWS' New Version of Forecast
This preview is not operational and should not be used for support decisions.

Regional Weather Roundup (RWR)

Issued by National Weather Service (NWS)

                            
000
ASUS42 KTBW 231416
RWRFL 
FLORIDA REGIONAL WEATHER ROUNDUP
NATIONAL WEATHER SERVICE TAMPA BAY RUSKIN FL
1000 AM EDT THU MAY 23 2019

NOTE: "FAIR" INDICATES FEW OR NO CLOUDS BELOW 12,000 FEET WITH NO
SIGNIFICANT WEATHER AND/OR OBSTRUCTIONS TO VISIBILITY.

FLZ001>010-012>015-112-114-115-231500-
PANHANDLE FLORIDA
  
CITY           SKY/WX    TMP DP  RH WIND       PRES   REMARKS
PENSACOLA      PTSUNNY   82  76  81 E6        30.17S                  
PENSACOLA NAS  PTSUNNY   83  75  77 SE9       30.17R                  
MILTON NAS     FAIR      82  75  79 E6        30.19R                  
CRESTVIEW      FAIR      83  71  67 VRB7      30.21R                  
DUKE FIELD     FAIR      83  72  70 SE6       30.19R                  
VALPARAISO     MOSUNNY   83  72  69 SE10      30.18R                  
MARY ESTHER    PTSUNNY   84  74  71 SE10      30.17R                  
PANAMA CITY    FAIR      82  70  66 SE6       30.19R                  
TYNDALL AFB    FAIR      82  69  64 E8        30.19R                  
APALACHICOLA   FAIR      82  67  60 E9        30.19R                  

STATION/POSITION SKY/WX   TEMP    WIND        PRES    WAVE   SWELL
                          AIR SEA DIR/SP/G            HT/PER HT/PER
                          (F)     (DEG/KT/KT) (MB)    (FT/S) (FT/S)
30.1N   87.6W                                   N/A     3/ 6
29.2N   88.2W                     120/ 10/ 14 1021.1R   3/ 7   3/ 7
PANAMA CITY BEAC           79 82  130/ 12/ 14 1022.6R
TOWER C          NOT AVBL

$$
FLZ011-016>038-118-127-128-134-139-239-231500-
NORTH FLORIDA
  
CITY           SKY/WX    TMP DP  RH WIND       PRES   REMARKS
MARIANNA       FAIR      81  69  67 SE8       30.20R                  
TALLAHASSEE    FAIR      81  68  64 SE10      30.22R                  
PERRY          FAIR      81  68  65 SE6       30.23R                  
LIVE OAK       SUNNY     82  68  61 CALM      30.22R                  
CROSS CITY     FAIR      81  68  64 E8        30.21R                  
LAKE CITY      FAIR      81  68  65 E3        30.22S                  
GAINESVILLE    FAIR      84  69  60 SE8       30.24R                  
WILLISTON      FAIR      81  68  64 SE6       30.20R                  
PALATKA        FAIR     N/A N/A N/A SE9       30.21R                  
MAYPORT NAS    PTSUNNY   83  71  67 E10       30.22R                  
JACKSONVILLE   FAIR      81  70  69 VRB3      30.22R                  
JAX NAS        PTSUNNY   82  68  62 VRB3      30.22R                  
JAX CECIL      CLOUDY    86  72  62 VRB5      30.22R                  
FERNANDINA BEA PTSUNNY   80  72  75 E12       30.23R                  
ST AUGUSTINE   FAIR      81  71  71 E6        30.23R                  
PALM COAST     PTSUNNY   82  70  65 E6        30.20R                  

STATION/POSITION SKY/WX   TEMP    WIND        PRES    WAVE   SWELL
                          AIR SEA DIR/SP/G            HT/PER HT/PER
                          (F)     (DEG/KT/KT) (MB)    (FT/S) (FT/S)
SHELL POINT      NOT AVBL
KEATON BEACH               78     120/  4/  7 1023.1R
CEDAR KEY                  77     100/ 10/ 11 1022.6R
FERNANDINA                 84 82  110/  4/  7 1024.2R
30.7N   81.3W                 80                N/A     4/ 5
MAYPORT                    80 82   80/  6/  8 1023.7R
31.4N   80.9W              78 78  100/  6/  6 1024.3R   4/ 5   3/ 5
ST AUGUSTINE               79 80   90/  3/  4 1023.6R

$$
FLZ040-043>046-052-053-057-058-063-144-231500-
INTERIOR CENTRAL FLORIDA
  
CITY           SKY/WX    TMP DP  RH WIND       PRES   REMARKS
OCALA          FAIR      82  69  64 E10       30.20R                  
LEESBURG       FAIR      82  68  62 E7        30.20R                  
SANFORD        PTSUNNY   82  70  66 E7        30.19R                  
ORLANDO EXEC   PTSUNNY   82  69  64 E8        30.19R                  
ORLANDO INTL   FAIR      82  68  62 E9        30.19R                  
KISSIMMEE      FAIR      81  69  67 E12       30.20R                  
WINTER HAVEN   FAIR      82  67  60 E12       30.19R                  
LAKELAND       SUNNY     81  64  57 E9        30.18R                  
BARTOW         SUNNY     82  68  61 E12       30.17R                  
SEBRING        FAIR      82  66  57 E13       30.17R                  
OKEECHOBEE     FAIR      81  68  65 E8        30.15R                  

$$
FLZ041-047-054-059-064-141-147-231500-
EAST CENTRAL FLORIDA
  
CITY           SKY/WX    TMP DP  RH WIND       PRES   REMARKS
ORMOND BEACH   MOSUNNY   81  72  74 E9        30.20R                  
DAYTONA BEACH  FAIR      81  72  74 NE12      30.20R                  
DELAND         PTSUNNY   81  70  69 NE8       30.19S                  
NEW SMYRNA BEA MOSUNNY   82  72  69 E8        30.21R                  
TITUSVILLE     MOSUNNY   86  70  58 E9        30.20R                  
CAPE CANAVERAL FAIR      82  62  50 E9        30.18R                  
PATRICK AFB    FAIR      83  73  71 E10       30.18R                  
MELBOURNE      FAIR      84  71  65 E9        30.18R                  
VERO BEACH     FAIR      82  70  66 E12       30.16R                  
FT PIERCE      FAIR      83  68  60 E12       30.16R                  
STUART         MOSUNNY   82  68  61 E14       30.16R                  

STATION/POSITION SKY/WX   TEMP    WIND        PRES    WAVE   SWELL
                          AIR SEA DIR/SP/G            HT/PER HT/PER
                          (F)     (DEG/KT/KT) (MB)    (FT/S) (FT/S)
28.5N   80.2W              79      80/ 12/ 16 1022.5R   3/ 5   2/ 7
28.9N   78.5W              77 79   70/ 14/ 16 1022.9R   4/ 6   2/ 7
TRIDENT PIER               82 82   70/  8/ 10 1023.3R
28.4N   80.5W                 80                N/A     3/ 5
27.5N   80.2W                 78                N/A     3/ 5

$$
FLZ050-056-061-142-242-148-248-149-249-151-251-155-255-
160-260-231500-
WEST CENTRAL FLORIDA
  
CITY           SKY/WX    TMP DP  RH WIND       PRES   REMARKS
CRYSTAL RIVER  FAIR      81  68  65 SE3       30.19S                  
INVERNESS      FAIR      81  72  74 E7        30.19S                  
BROOKSVILLE    FAIR      81  66  60 E9        30.19R                  
CLEARWATER AIR FAIR      79  63  57 E6        30.16S                  
ST PETE CLEARW FAIR      80  66  62 E9        30.16R                  
TAMPA INTL     FAIR      82  64  54 E10       30.17R                  
TAMPA EXEC     FAIR      81  64  57 E10       30.18R                  
PLANT CITY     FAIR      82  64  54 E7G16     30.19S                  
MACDILL AFB    FAIR      81  66  59 E10       30.16R                  
PETER O KNIGHT CLOUDY    82  68  61 E7        30.17S                  
ST PETERSBURG  FAIR      75  68  78 SE15      30.15R                  
SARASOTA       FAIR      83  66  56 E13       30.13S                  
VENICE         FAIR      82  68  61 E12       30.15R                  

STATION/POSITION SKY/WX   TEMP    WIND        PRES    WAVE   SWELL
                          AIR SEA DIR/SP/G            HT/PER HT/PER
                          (F)     (DEG/KT/KT) (MB)    (FT/S) (FT/S)
27.3N   84.2W                 79                N/A     4/ 6
CLEARWATER BEACH           79 84  100/ 10/ 14 1021.4R
MIDDLE TAMPA BAY           78     110/ 11/ 12 1021.4R
VENICE                     80 83   90/  8/ 11 1020.8R

$$
FLZ066-069-070-075>078-162-262-165-265-231500-
SOUTHWEST FLORIDA AND KEYS
  
CITY           SKY/WX    TMP DP  RH WIND       PRES   REMARKS
PUNTA GORDA    FAIR      81  67  62 E12       30.15S                  
FT MYERS       FAIR      80  69  69 E10       30.12S                  
SOUTHWEST INTL FAIR      83  69  62 E13       30.13R                  
NAPLES         FAIR      82  70  66 E14       30.11F                  
MARCO ISLAND   FAIR      83  71  67 E15       30.13R                  
IMMOKALEE      PTSUNNY   82  70  65 E10       30.11S                  
MARATHON       FAIR      87  66  49 E14G23    30.08R                  
KEY WEST NAS   FAIR      86  69  56 E20G25    30.08R                  
KEY WEST INTL  FAIR      84  70  62 E15       30.09R                  

STATION/POSITION SKY/WX   TEMP    WIND        PRES    WAVE   SWELL
                          AIR SEA DIR/SP/G            HT/PER HT/PER
                          (F)     (DEG/KT/KT) (MB)    (FT/S) (FT/S)
NAPLES                     81 83              1019.9S
DRY TORTUGAS               81     100/ 18/ 19 1018.6R
SAND KEY                   81                 1018.4R
SOMBRERO KEY               81                 1017.8R

$$
FLZ067-068-071>074-168-172>174-231500-
SOUTHEAST FLORIDA 
  
CITY           SKY/WX    TMP DP  RH WIND       PRES   REMARKS
W PALM BEACH   MOSUNNY   83  69  62 E17       30.14R                  
BOCA RATON     MOSUNNY   86  68  54 E9        30.13R                  
FT LAUDER-EXEC FAIR      84  66  54 E16       30.12R                  
FT LAUDERDALE  FAIR      82  67  60 E15       30.11R                  
POMPANO BEACH  FAIR      84  67  56 E15       30.13R                  
OPA LOCKA      FAIR      84  67  56 E16       30.12R                  
MIAMI          FAIR      84  68  58 E14       30.11S                  
WEST KENDALL   FAIR      84  68  58 E17G25    30.10R                  
HOMESTEAD      FAIR      83  70  64 NE14G20   30.09R                  

STATION/POSITION SKY/WX   TEMP    WIND        PRES    WAVE   SWELL
                          AIR SEA DIR/SP/G            HT/PER HT/PER
                          (F)     (DEG/KT/KT) (MB)    (FT/S) (FT/S)
PORT EVERGLADES            81      70/ 10/ 14 1019.9R
VIRGINIA KEY               81 84   50/ 12/ 16 1018.9R
LAKE WORTH                 80 81              1021.5R
SETTLEMENT POINT           79      70/ 11/ 12 1020.7R

$$